Weather in Vosyakhovo

Russia / Yamalo-Nenets Autonomous Okrug     65°34′31″N   64°35′59″E
temp.,
°C
wind,
m/s
gust,
m/s
humid.,
%
clouds,
%
prec.,
mm/h
press.,
hPa
HPBL,
m
27 february, sat
sat2723:00−22ssw229599 0.0 102120
02:00−22s229585 0.0 102121
05:00−22s229586 0.0 102226
08:00−22s229586 0.0 102132
11:00−19s239279 0.0 1022166
14:00−17s248686 0.0 1022401
17:00−20s239590 0.0 102229
20:00−23s339952 0.0 102128
28 february, sun
sun2823:00−24ssw339847 0.0 102135
02:00−25s33970 0.0 102036
05:00−26s34975 0.0 102144
08:00−28s339742 0.0 102039
11:00−23s359040 0.0 1020249
14:00−21s358859 0.0 1020343
17:00−22s349467 0.0 102075
20:00−26s339679 0.0 101937
1 march, mon
mon123:00−26ssw339775 0.0 102036
02:00−27ssw239888 0.0 101930
05:00−28ssw339883 0.0 101841
08:00−28s349781 0.0 101753
11:00−23ssw489364 0.0 1016327
14:00−20ssw489293 0.0 1013426
17:00−19s379496 0.0 1012194
20:00−21s4698100 0.0 1009153
2 march, tue
tue223:00−20s4995100 0.1 1007210
02:00−17s51292100 0.0 1005357
05:00−16s61490100 0.1 1004460
08:00−16s61390100 0.0 1002500
11:00−15s61291100 0.3 1002530
14:00−14s61190100 0.3 1002561
17:00−14s61191100 0.4 1001554
20:00−13s51293100 0.2 1001532
3 march, wed
wed323:00−12s51193100 0.6 1001556
02:00−13s41094100 0.4 1000462
05:00−14sse51094100 0.7 1000376
08:00−15sse5994100 0.3 1000363
11:00−14sse5892100 0.6 1000417
14:00−13sse5892100 0.3 1000441
17:00−13sse4893100 0.5 1000412
20:00−14s479499 0.1 1000180